Regional Weather Roundup
Issued by NWS

Home | Current Version | Previous Version | Graphics & Text | Print | Product List | Glossary On
Versions: 1 2 3 4 5 6 7 8 9 10 11 12 13 14 15 16 17 18 19 20 21 22 23 24 25 26 27 28 29 30 31 32 33 34 35 36 37 38 39 40 41 42 43 44 45 46 47 48 49 50
000
ASUS43 KLOT 052202
RWRIL

ILLINOIS REGIONAL WEATHER ROUNDUP
NATIONAL WEATHER SERVICE CHICAGO/ROMEOVILLE IL
500 PM CDT TUE MAY 05 2015

NOTE: "FAIR" INDICATES FEW OR NO CLOUDS BELOW 12,000 FEET WITH NO
SIGNIFICANT WEATHER AND/OR OBSTRUCTIONS TO VISIBILITY.

* THESE STATIONS ARE NOT UNDER NWS QUALITY CONTROL. THEY ALSO MAY NOT
  REPORT WEATHER SUCH AS PRECIPITATION OR FOG.

ILZ001-002-007-009-015-016-024-052300-
NORTHWEST ILLINOIS

CITY           SKY/WX    TMP DP  RH WIND       PRES   REMARKS
MOLINE         PTSUNNY   71  63  75 E15       30.11F HAZE
STERLING*      CLOUDY    61  55  82 NE13      30.16F
$$

ILZ003-004-008-010-011-017-018-052300-
NORTH CENTRAL ILLINOIS

CITY           SKY/WX    TMP DP  RH WIND       PRES   REMARKS
ROCKFORD       CLOUDY    58  51  78 NE13      30.20F
$$

ILZ005-006-012>014-019>023-052300-
NORTHEAST ILLINOIS

CITY           SKY/WX    TMP DP  RH WIND       PRES   REMARKS
CHICAGO-OHARE  CLOUDY    48  47  96 NE13      30.20F FOG
CHICAGO-MIDWAY CLOUDY    56  51  84 N14       30.20S FOG
AURORA         PTSUNNY   59  52  77 NE12      30.18F HAZE
WAUKEGAN       CLOUDY    46  45  96 NE6       30.23F
DUPAGE AIRPORT PTSUNNY   56  51  84 NE16      30.18F
WHEELING       CLOUDY    48  45  89 NE8       30.23F
NORTHERLY ISL    N/A     47  46  97 N12         N/A
$$

LMZ740>746-052300-
SOUTHERN LAKE MICHIGAN

STATION/POSITION SKY/WX   TEMP    WIND        PRES    VSBY  WAVE
                          AIR SEA DIR/SP/G                  HT/PER
                          (F)     (DEG/KT/KT) (MB)    (MI)  (FT/S)
HARRISON CRIB              45      20/ 12/ 14   N/A
BURNHAM HARBOR             49      20/  8/  9   N/A
CALUMET HARBOR             48     350/  5/  8   N/A
BURNS HARBOR               52      50/  8/ 10 1022.4F
MICHIGAN CITY              53      30/ 11/ 11   N/A
MICHIGAN CITY 6N           51 50   60/ 10/ 12   N/A           2/ 4
ST. JOSEPH                 54 49  100/ 12/ 14   N/A           1/ 3
$$

ILZ025>027-034>036-040-047-049-050-058-095>099-052300-
WEST-CENTRAL ILLINOIS

CITY           SKY/WX    TMP DP  RH WIND       PRES   REMARKS
QUINCY         FAIR      83  53  35 S7        30.07F HX  82
$$

ILZ028>032-037-038-041>044-048-051>054-059>061-052300-
CENTRAL ILLINOIS

CITY           SKY/WX    TMP DP  RH WIND       PRES   REMARKS
DECATUR        MOSUNNY   83  52  34 SW16      30.10F HX  82
PEORIA         PTSUNNY   80  65  59 VRB6      30.10F HX  82
SPRINGFIELD    MOSUNNY   85  52  32 S12       30.09F HX  83
TAYLORVILLE    NOT AVBL
$$

ILZ033-039-045-046-055>057-062-063-052300-
EAST-CENTRAL ILLINOIS

CITY           SKY/WX    TMP DP  RH WIND       PRES   REMARKS
CHAMPAIGN      MOSUNNY   87  48  25 S16G23    30.10F HX  84
MATTOON        MOSUNNY   81  53  37 S9        30.11F HX  80
$$

ILZ079-100>102-052300-
SOUTHWEST ILLINOIS

CITY           SKY/WX    TMP DP  RH WIND       PRES   REMARKS
CAHOKIA*       PTSUNNY   81  57  43 SW6       30.11F HX  81
$$

ILZ064>066-069>071-074>076-080>082-084>086-088>090-092>094-052300-
SOUTH-CENTRAL ILLINOIS

CITY           SKY/WX    TMP DP  RH WIND       PRES   REMARKS
CARBONDALE     MOSUNNY   83  58  42 S10       30.13S HX  83
MARION         PTSUNNY   84  61  45 S12       30.15F HX  84
MT. VERNON     MOSUNNY  N/A N/A N/A S12G17    30.13F
$$

ILZ067-068-072-073-078-083-087-091-052300-
SOUTHEAST ILLINOIS

CITY           SKY/WX    TMP DP  RH WIND       PRES   REMARKS
LAWRENCEVILLE  MOSUNNY   85  52  32 S14       30.13F HX  83
$$

ABBREVIATIONS USED IN REMARKS
   TC - TEMPERATURE IN CELSIUS
  WCI - WIND CHILL INDEX
   HX - HEAT INDEX
  VSB - VISIBILITY
$$




USA.gov is the U.S. government's official web portal to all federal, state and local government web resources and services.